Overview Statistics Trail Chart Weather Telemetry Raw packets
 

This is the latest recevied weather packets stored in our database for station/object DO1BDB-12. If no packets are shown the sender has not sent any weather packets the latest 10 day(s).

<< 308 309 310 311 312 313 314 >>
Time Temp. Humidity Pressure Rain* Wind** Luminosity Snow
1788182064 25.56° C 52% 100.8 hPa - - - -
1788181998 25.56° C 52% 100.8 hPa - - - -
1788181932 26.11° C 52% 100.8 hPa - - - -
1788181867 25.56° C 54% 100.8 hPa - - - -
1788181800 24.44° C 55% 100.8 hPa - - - -
1788181735 23.89° C 55% 100.8 hPa - - - -
1788181669 23.89° C 56% 100.8 hPa - - - -
1788181603 23.89° C 56% 100.8 hPa - - - -
1788181537 24.44° C 55% 100.8 hPa - - - -
1788181471 24.44° C 56% 100.8 hPa - - - -
1788181405 25° C 58% 100.8 hPa - - - -
1788181339 25.56° C 54% 100.8 hPa - - - -
1788181274 25.56° C 55% 100.8 hPa - - - -
1788181208 25° C 57% 100.8 hPa - - - -
1788181142 25.56° C 56% 100.8 hPa - - - -
1788181076 25° C 59% 100.8 hPa - - - -
1788181010 25° C 58% 100.8 hPa - - - -
1788180944 24.44° C 59% 100.8 hPa - - - -
1788180879 24.44° C 60% 100.8 hPa - - - -
1788180813 24.44° C 62% 100.8 hPa - - - -
1788180747 24.44° C 63% 100.8 hPa - - - -
1788180681 23.89° C 64% 100.8 hPa - - - -
1788180615 23.89° C 62% 100.8 hPa - - - -
1788180549 23.33° C 66% 100.8 hPa - - - -
1788180484 23.89° C 66% 100.8 hPa - - - -

* Rain since midnight (hover to see other rain measurements)
** Current wind speed in m/s (hover to see current wind gust speed)